CAPE
2194 2136 1991 1900 1842 1732 1240 986 681 593 523 600 792 896 749 1134 1196 1048 1036 969 853 752 752 767 666 628 669 709 783 833 832 862 869 926 909 1039 1017 998 1012 989 1032 1049 1160 1146 978 851 826 617 637 740 664 735 772 778 801 741 667 525 340 411 365 263 288 407 458 530 471 516 446 463 403 387 444 417 435 308 332 470 776 629 692 544 677 961 627
2167 2070 1888 1910 1893 1649 1117 1009 808 716 604 809 821 884 942 1331 1274 1140 1145 1140 1017 857 823 884 835 856 855 872 770 755 802 817 895 956 1017 935 947 1082 1090 1056 1087 1053 897 752 812 820 556 533 751 692 711 808 744 737 717 578 397 416 335 390 396 365 306 421 450 476 467 577 436 321 273 259 344 375 436 393 440 412 489 764 486 645 592 542 455
2213 2090 1853 1880 1941 1577 1031 1010 860 794 770 895 1074 1104 1254 1428 1372 1144 1215 1273 1137 956 911 988 946 991 997 884 846 840 914 980 929 882 972 868 1054 1158 1193 1154 1119 1062 935 776 761 660 537 516 515 591 686 717 573 636 629 511 368 380 459 406 274 384 388 472 429 616 523 559 522 430 421 267 172 259 245 207 192 306 374 380 395 337 524 452 581
2274 2152 1943 1933 2007 1819 1143 1050 894 890 911 993 1194 1275 1445 1544 1334 1136 1200 1255 1182 1028 963 1068 1043 1069 1113 1042 952 865 813 721 904 1016 1090 1139 1110 1074 1230 1139 1113 1029 837 681 739 624 553 552 566 718 662 651 575 585 599 439 335 338 508 466 386 262 265 251 414 440 573 460 573 682 602 616 436 297 162 258 361 184 396 281 262 171 250 458 664
2222 2197 2070 2008 2097 2153 1617 1153 949 990 1027 1105 1362 1442 1465 1477 1312 1244 1184 1176 1163 1064 1060 1116 1008 884 866 722 550 472 560 678 883 935 944 1092 999 1056 1094 1004 1012 918 867 903 710 642 622 571 521 625 664 592 590 492 457 298 364 338 381 518 530 481 358 443 219 361 536 1037 663 368 265 513 520 254 191 70 242 444 223 178 283 195 290 442 306
2176 2138 2082 2203 2303 2171 2153 1509 1054 1123 1079 1242 1519 1466 1553 1423 1296 1244 1140 1092 1145 1167 1137 1058 854 781 579 472 551 698 638 771 995 1034 1008 1196 1140 958 940 986 966 877 789 888 816 630 620 443 443 561 588 532 497 505 443 280 397 417 386 566 555 500 516 415 291 294 442 553 640 518 923 622 516 363 344 132 101 116 358 376 194 449 447 383 189
2009 1958 2000 2218 2319 2014 2007 1696 979 1145 1266 1329 1491 1472 1491 1527 1284 1164 1049 1048 1085 1196 1129 1012 973 828 654 802 829 911 886 965 1052 1150 1167 1082 1031 1192 1048 1022 1022 1022 922 922 871 792 506 381 382 485 564 560 399 455 487 356 402 408 455 516 609 413 457 542 492 447 313 352 427 758 944 574 667 368 301 174 133 86 134 135 258 275 98 45 74
1878 1924 1976 2180 2232 1856 1848 1546 935 1233 1351 1387 1371 1431 1465 1444 1217 1148 1112 1152 1237 1250 1185 1168 1086 890 867 923 1013 1298 1158 938 1076 1185 1135 1143 1226 867 1019 1018 940 870 833 806 880 793 559 398 396 482 530 480 324 337 380 389 402 440 495 543 497 458 552 541 553 514 673 750 363 832 761 763 897 860 457 452 314 194 102 110 144 139 110 0 1
1747 1897 2027 2059 2209 1732 1852 1408 1116 1178 1308 1451 1342 1452 1450 1383 1275 1199 1145 1313 1315 1269 1268 1321 1191 1042 957 938 1123 1319 1294 1201 983 867 994 1104 1297 1177 1282 994 773 825 780 724 745 701 637 582 437 543 581 526 435 470 444 400 507 511 451 414 512 640 657 762 930 859 1029 1000 461 724 772 669 519 718 696 747 425 311 146 95 78 12 2 2 2
1754 1878 1710 1992 1775 1524 1791 1662 1339 1102 1382 1507 1393 1428 1482 1472 1284 1255 1188 1247 1328 1375 1449 1378 1253 1079 988 1266 1172 1000 985 916 1006 1014 974 1098 1331 1397 1379 1307 1236 1193 912 933 602 610 681 727 637 643 613 489 628 750 778 682 590 578 500 422 600 789 842 858 922 1088 1120 906 820 891 792 616 541 505 640 682 650 557 393 139 43 9 3 2 0
1692 1642 1830 1642 1561 1562 1723 1630 1340 1108 1337 1344 1403 1425 1472 1516 1418 1248 1185 1118 1250 1362 1433 1384 1295 1090 1248 1177 1123 1029 1040 1044 1022 943 868 1051 1120 1268 1352 1321 1267 1228 1236 1050 653 774 699 634 697 705 692 668 707 754 928 998 986 901 794 697 610 744 812 1022 927 1030 1001 908 916 789 819 463 588 571 586 680 675 487 264 93 46 5 0 2 0
1670 1616 1597 1570 1586 1606 1624 1529 1441 1249 1285 1424 1448 1415 1462 1404 1330 1274 1141 1147 1215 1334 1375 1294 1266 984 1041 1109 1081 1009 904 1004 1194 1088 1001 1040 1178 1220 1243 1148 1079 876 925 995 896 857 659 584 589 630 640 714 765 781 781 1087 1180 1060 1010 881 720 473 532 439 1035 1152 920 881 986 940 968 961 411 305 529 743 731 650 414 137 37 1 0 0 0
1546 1506 1495 1588 1746 1708 1635 1534 1454 1438 1318 1404 1490 1471 1466 1318 1284 1232 1179 1208 1271 1313 1301 1302 1273 925 861 970 998 917 904 1063 1238 1152 1070 1052 991 1064 1034 1119 925 812 779 770 720 710 796 856 720 746 640 700 834 811 859 949 1255 1373 1323 1234 1128 1036 1042 1001 1142 1302 1117 1017 987 947 1072 717 298 203 387 746 891 760 551 255 28 4 0 0 0
1421 1304 1428 1596 1776 1685 1444 1389 1388 1217 1325 1400 1458 1458 1360 1264 1204 1193 1171 1320 1400 1358 1331 1199 1174 941 771 706 700 778 840 948 942 901 859 903 962 1140 1161 1045 906 838 779 820 568 288 395 726 968 1128 1105 1061 857 660 716 789 865 1036 1288 1281 1245 1177 1183 1249 1341 1309 1116 988 974 958 887 774 393 276 475 618 712 726 556 287 40 6 0 0 0
1351 1256 1385 1238 1124 966 1164 1392 1177 920 1366 1379 1420 1291 1250 1206 1190 1197 1097 1316 1359 1361 1321 1209 1179 895 767 620 577 764 626 685 688 680 661 790 921 1074 1136 1069 858 804 628 641 185 231 243 443 895 1076 1008 1063 866 860 721 853 911 887 1052 1092 1014 926 823 776 971 968 846 688 798 1038 1061 729 457 320 331 460 440 606 633 348 107 10 1 0 0
1410 1436 1370 1218 950 500 835 1027 1127 1086 1284 1399 1306 1252 1279 1300 1267 1170 1042 1166 1273 1296 1089 1136 1107 876 763 560 511 552 616 711 633 443 545 747 734 900 858 888 940 732 552 365 199 136 314 512 672 864 752 747 736 746 844 787 922 1072 1006 800 926 399 745 665 707 641 649 787 926 1069 920 574 421 309 214 426 355 566 638 443 272 43 1 2 0
1736 1644 1565 1265 1078 559 572 805 1098 1159 1326 1359 1259 1226 1271 1250 1124 992 876 809 812 1070 871 1212 1030 918 742 504 532 616 690 658 427 328 462 554 614 710 687 625 590 583 459 357 93 78 364 600 584 642 566 548 648 766 851 878 921 1025 1039 1028 814 728 754 581 776 685 742 652 945 979 1101 893 479 292 256 330 496 632 577 496 287 154 11 0 0
1622 1505 1133 1084 1138 821 902 1073 1036 1027 1303 1246 1254 1249 1341 1207 963 872 706 500 532 630 728 1005 939 855 711 605 587 661 665 587 383 254 321 316 324 364 359 261 398 490 419 157 107 156 325 328 617 464 404 544 583 498 560 695 804 711 813 799 835 886 832 777 751 635 593 646 867 1014 1052 557 524 275 203 177 403 502 523 510 452 480 48 0 0
1414 1415 1228 957 991 801 869 988 899 1012 1077 1129 1144 1384 1202 958 1001 887 789 465 378 786 728 719 707 688 742 702 660 662 594 457 412 284 316 412 319 311 318 473 420 272 207 85 85 62 136 233 445 316 288 285 330 355 342 433 528 622 614 640 533 862 874 978 819 741 702 407 578 869 847 812 489 331 183 111 172 266 465 465 348 180 108 23 0
977 888 941 871 821 799 783 1013 990 1065 1086 1108 1088 1134 1193 993 792 829 690 424 468 164 80 478 738 750 731 696 656 635 338 402 474 323 387 496 374 336 319 380 459 258 266 158 66 40 90 123 147 143 126 127 132 93 136 183 246 286 241 212 82 201 377 754 699 668 496 671 707 686 712 646 468 358 188 16 17 94 229 178 92 41 20 36 8
933 854 825 840 340 710 852 842 931 846 854 897 1161 734 501 624 694 734 480 392 422 476 504 536 783 769 631 505 486 474 251 428 447 394 524 564 430 317 316 395 179 214 89 53 21 22 21 34 40 35 45 57 41 12 9 21 3 4 1 0 0 0 0 11 160 395 430 630 562 570 687 619 513 406 208 3 1 17 36 36 10 3 0 8 1
572 450 405 544 722 933 964 968 995 878 674 643 784 642 780 691 577 473 367 583 364 446 568 648 801 793 560 463 480 255 188 226 356 294 404 312 292 257 257 122 271 23 35 5 0 1 2 4 0 0 0 0 0 0 0 0 0 21 17 0 0 0 0 1 14 48 223 378 614 531 523 471 529 466 254 40 3 0 10 16 2 1 0 0 2
203 154 198 254 375 465 437 636 697 982 900 854 854 615 478 518 665 470 442 483 352 320 350 567 720 785 640 525 501 259 222 404 397 318 338 245 266 239 118 226 108 1 0 3 0 0 0 0 0 0 0 0 0 0 0 0 0 0 1 0 0 0 0 4 3 6 5 112 366 542 545 490 512 469 127 58 14 2 15 15 6 2 1 0 0
136 73 76 88 184 105 417 494 446 618 647 636 665 716 736 680 620 603 646 553 478 411 395 371 495 696 666 573 468 239 297 523 348 317 325 190 143 127 78 115 12 0 0 0 0 0 0 0 0 0 0 0 0 0 0 0 0 0 0 0 0 0 0 0 0 0 0 0 100 441 467 520 532 276 100 140 30 26 21 15 9 4 6 0 0
295 294 160 157 153 253 347 492 469 438 253 330 419 481 519 519 526 526 558 603 517 336 253 166 325 559 585 458 347 305 390 502 234 94 52 21 22 5 0 0 0 0 0 0 0 0 0 0 0 0 0 0 0 0 0 0 0 0 0 0 0 0 0 0 0 0 0 0 0 142 262 413 635 602 294 161 113 189 21 30 29 4 0 1 0
143 51 21 257 247 233 235 296 339 363 262 147 322 332 366 434 488 538 606 626 566 463 406 340 350 405 407 456 404 342 295 188 203 8 3 0 0 0 0 0 0 0 0 0 0 0 0 0 0 0 0 0 0 0 0 0 0 0 0 0 0 0 0 0 0 0 0 0 0 0 74 273 636 858 489 372 315 473 356 272 91 35 2 2 0
46 60 52 69 80 350 138 325 381 353 477 460 455 452 480 504 493 558 524 587 631 633 578 502 312 384 385 432 435 373 77 195 248 9 19 0 0 0 0 0 0 0 0 0 0 0 0 0 0 0 0 0 0 0 0 0 0 0 0 0 0 0 0 11 1 0 0 0 0 0 2 66 492 925 865 559 368 447 559 641 443 347 6 0 0
17 46 104 98 102 106 104 298 23 290 78 1 2 136 384 446 528 546 541 540 549 570 596 505 164 319 393 416 416 258 0 0 0 0 42 66 7 0 0 0 0 0 0 0 0 0 0 0 0 0 0 0 0 0 0 0 0 0 0 0 0 0 0 0 64 11 0 0 0 0 0 0 30 148 483 436 348 378 251 467 356 327 108 6 4
0 15 109 122 112 82 232 214 37 207 88 75 195 250 302 368 460 463 470 454 409 391 374 294 107 255 333 388 400 32 0 0 0 2 16 22 22 82 56 10 0 0 0 0 0 0 0 0 0 0 0 0 0 0 0 0 0 0 0 0 0 0 0 0 0 19 5 0 0 0 0 0 0 4 0 2 12 27 38 73 104 44 96 84 75
174 59 99 49 62 71 30 33 39 28 47 16 141 290 366 441 457 379 431 381 368 342 316 257 0 115 289 362 343 0 0 1 3 9 6 10 0 0 0 0 0 0 0 0 0 0 0 0 0 0 0 0 0 0 0 0 0 0 0 0 0 0 0 4 1 12 38 10 4 0 0 0 0 0 0 0 0 0 0 17 82 1 1 4 19
83 160 40 82 92 64 108 115 83 70 96 41 237 384 407 435 414 414 430 332 366 356 316 275 254 258 207 18 0 118 0 0 0 1 3 0 0 0 0 0 0 0 0 0 0 14 3 0 0 0 0 0 1 0 0 0 0 0 0 0 0 5 0 1 16 30 41 48 43 3 65 35 0 0 0 0 0 0 0 0 0 0 0 28 49
72 64 59 108 76 40 90 111 44 172 79 69 73 188 352 351 308 288 359 323 304 194 83 193 153 153 250 4 28 23 64 30 31 11 1 1 0 0 0 0 0 0 0 0 0 0 0 3 1 0 0 1 2 0 0 0 0 0 0 0 0 0 0 5 6 12 18 31 83 118 153 145 202 306 289 48 0 0 0 0 0 0 0 0 0
73 44 42 62 55 123 130 52 37 71 41 44 0 0 103 86 122 162 243 55 72 74 86 16 24 18 27 32 31 11 3 0 0 0 0 0 0 0 0 0 0 0 0 0 0 0 0 0 0 0 0 0 0 0 0 0 0 0 0 0 0 0 0 0 0 2 19 69 121 85 133 170 70 6 0 116 259 28 0 0 0 0 0 0 0
62 41 50 107 64 54 60 51 23 16 22 6 2 2 13 8 5 8 43 30 36 26 38 13 11 1 10 0 0 0 7 4 0 0 0 4 3 2 0 0 0 0 0 0 0 0 0 0 0 0 0 0 0 0 0 0 0 0 0 0 0 0 0 0 0 0 0 2 14 22 42 115 206 123 158 296 156 252 172 11 0 0 3 0 0
102 62 30 42 63 40 25 19 6 0 13 4 6 19 16 5 4 5 8 11 13 33 13 2 1 0 0 0 0 0 0 1 0 4 9 2 0 0 0 0 0 3 0 0 0 0 0 0 0 0 0 0 0 0 0 0 0 0 0 0 0 4 118 159 63 14 4 4 5 8 10 12 36 72 99 177 152 119 90 102 103 186 195 260 37
63 40 32 12 8 11 8 1 6 2 13 11 4 1 8 3 11 6 9 4 2 0 1 1 0 2 2 2 1 3 0 0 0 2 3 5 8 0 0 0 0 0 0 0 0 0 0 0 0 0 0 0 0 0 0 0 0 0 0 0 0 0 21 119 243 156 86 93 47 56 125 158 179 160 47 0 0 15 18 11 24 60 115 127 56
49 7 0 0 0 0 0 3 14 24 7 0 1 1 1 0 1 1 2 2 0 0 0 0 1 2 5 4 5 9 9 6 6 4 16 21 22 16 9 7 6 0 0 0 0 0 0 0 0 0 0 0 0 0 0 0 0 0 0 0 0 0 0 0 0 0 0 8 58 57 198 264 353 453 72 0 0 0 0 7 37 118 173 86 7
6 2 0 0 0 0 1 1 2 3 2 0 0 0 2 3 1 0 0 0 0 0 0 1 3 6 8 11 12 8 9 9 9 10 4 2 2 2 2 1 0 0 1 0 0 0 0 0 0 0 0 0 0 0 0 0 0 0 0 0 0 0 0 0 0 0 0 1 1 0 0 63 271 460 307 0 0 0 2 132 224 235 266 181 102
1 0 2 0 0 0 0 1 0 0 0 0 0 0 1 4 6 2 0 0 1 2 8 2 3 6 6 5 2 1 0 0 0 3 0 2 2 1 1 2 1 1 1 0 0 0 0 0 0 0 0 0 0 0 0 0 0 0 0 0 0 0 0 0 0 0 0 0 0 0 0 0 107 186 192 178 0 0 6 216 279 312 314 324 308
0 0 0 0 0 0 0 1 0 0 0 0 0 1 0 0 0 3 7 4 8 6 3 10 10 4 0 0 1 0 0 0 0 0 0 0 0 0 1 1 1 0 0 0 0 0 0 0 0 0 0 0 0 0 0 0 0 0 0 0 0 0 0 0 0 0 0 0 0 0 2 0 0 0 0 0 0 0 193 236 283 372 371 315 385
0 0 0 0 0 0 1 2 6 4 3 1 2 3 6 3 3 2 1 1 1 2 2 4 6 6 5 6 8 9 8 3 0 0 0 0 0 1 1 5 7 3 0 0 0 0 0 0 0 0 0 0 0 0 0 0 0 0 0 0 0 0 0 0 0 0 0 0 0 0 0 0 0 0 0 0 0 0 0 96 284 297 360 337 241
0 0 0 0 0 0 2 4 4 4 6 7 5 4 4 4 4 3 3 0 0 0 1 3 0 0 0 0 0 0 3 6 9 7 5 0 0 4 9 11 8 5 4 2 0 0 0 0 0 0 0 0 0 0 0 0 0 0 0 0 0 0 0 0 0 0 0 0 0 0 0 0 0 0 0 0 0 0 0 0 247 323 314 278 273
1 2 0 0 0 0 0 0 2 1 1 1 1 4 11 8 7 7 4 2 0 0 0 1 1 1 0 0 0 0 0 0 0 2 2 4 6 8 8 8 8 6 5 3 1 0 0 0 0 0 0 0 0 0 0 0 0 0 0 0 0 0 0 0 0 0 0 0 0 0 0 0 0 0 0 0 0 0 0 0 58 250 296 269 197
0 1 2 3 1 3 2 1 0 1 0 0 1 3 5 8 7 4 3 4 4 5 6 6 8 5 1 0 0 0 0 0 0 0 0 0 0 0 0 0 0 0 0 0 0 0 0 0 0 0 0 0 0 0 0 0 0 0 0 0 0 0 0 0 0 0 0 0 0 0 0 0 0 0 0 0 0 0 0 0 0 70 267 308 218
0 0 0 0 2 1 0 0 0 0 2 0 0 3 5 6 9 8 9 14 12 9 8 8 6 4 3 2 1 0 0 0 0 0 0 0 0 0 0 0 0 0 0 0 0 0 0 0 0 0 0 0 0 0 0 0 0 0 0 0 0 0 0 0 0 0 0 0 0 0 0 0 0 0 0 0 0 0 0 0 0 0 135 322 322
0 1 0 0 0 0 0 0 0 0 0 1 1 0 1 1 1 2 1 0 0 0 0 0 0 0 0 0 0 0 0 0 0 0 0 0 0 0 0 0 0 0 0 0 0 0 0 0 0 0 0 0 0 0 0 0 0 0 0 0 0 0 0 0 0 0 0 0 0 0 0 0 0 0 0 2 2 2 0 0 0 1 1 216 377
0 0 0 0 0 0 0 0 0 0 0 0 0 0 2 2 2 3 2 0 0 0 0 0 0 0 0 0 0 0 0 0 0 0 0 0 0 0 0 0 0 0 0 0 0 0 0 0 0 0 0 0 0 0 0 0 0 0 0 0 0 0 0 0 0 0 0 0 0 0 0 0 0 0 0 0 0 0 0 0 0 2 1 58 272
0 0 0 0 0 0 0 0 0 0 0 0 0 0 0 0 2 5 4 2 0 0 0 0 0 0 0 0 0 0 0 0 0 0 0 0 0 0 0 0 0 0 0 0 0 0 0 0 0 0 0 0 0 0 0 0 0 0 0 0 0 0 0 0 0 0 0 0 0 0 0 0 0 0 0 0 0 0 0 0 0 0 0 71 184
0 0 0 0 0 0 0 0 0 0 0 0 0 0 0 0 0 0 0 0 0 0 0 0 0 0 0 0 0 0 0 0 0 0 0 0 0 0 0 0 0 0 0 0 0 0 0 0 0 0 0 0 0 0 0 0 0 0 0 0 0 0 0 0 0 0 0 0 0 0 0 0 0 0 0 0 0 1 0 0 0 0 0 13 114
0 0 0 0 0 0 0 0 0 0 0 0 0 0 0 0 0 0 0 0 0 0 0 0 0 0 0 0 0 0 0 0 0 0 0 0 0 0 0 0 0 0 0 0 0 0 0 0 1 1 2 0 0 0 0 0 0 0 0 0 0 0 0 0 0 0 0 0 0 0 0 0 0 0 0 0 0 0 1 0 1 2 3 1 31
0 0 0 0 0 0 0 0 0 0 0 0 0 0 0 0 0 0 0 0 0 0 0 0 0 0 0 1 1 1 0 0 0 0 0 0 0 0 0 0 0 0 0 0 0 0 0 0 0 0 0 0 0 0 0 0 0 0 0 0 0 0 0 0 0 0 0 0 0 0 0 0 0 0 0 0 0 0 0 0 3 3 2 3 6
Wind_Speed
32 35 35 30 26 25 26 29 31 27 17 7 5 10 8 9 13 16 17 19 19 18 16 17 16 15 15 13 13 14 15 16 16 15 14 15 14 14 14 14 14 14 13 12 10 9 8 8 8 9 8 8 8 9 10 11 12 12 12 11 14 16 15 15 15 14 15 14 14 13 11 10 9 10 11 11 11 8 8 9 9 11 11 12 13
33 33 30 28 22 19 20 22 27 28 21 17 8 6 7 9 15 14 11 16 17 17 17 16 15 14 14 12 12 13 16 17 17 16 16 16 15 16 16 15 15 15 14 12 11 10 9 9 8 9 9 8 9 10 11 13 13 12 12 11 11 13 14 14 16 15 13 13 13 11 12 10 9 9 10 9 10 9 9 10 10 10 11 12 13
28 29 27 24 20 16 16 17 21 23 26 26 24 20 18 18 18 17 13 10 10 12 13 13 14 14 13 12 12 14 16 18 18 18 18 17 16 16 17 16 16 15 14 13 12 11 10 10 10 10 9 10 11 11 12 13 12 12 11 11 12 11 13 12 13 5 12 13 13 11 10 10 7 7 10 9 8 8 8 10 10 10 11 11 10
24 24 24 23 19 14 13 15 17 21 24 26 28 28 25 23 22 20 17 12 9 8 8 9 12 14 13 14 14 16 17 19 19 19 18 17 17 17 18 17 16 17 15 14 13 13 11 11 12 10 11 10 10 12 12 12 11 11 10 11 12 13 11 11 9 7 11 14 12 7 9 9 9 7 10 10 8 9 9 9 10 11 11 12 11
23 22 22 21 17 12 13 15 15 17 21 23 23 24 23 25 23 20 17 14 11 9 8 9 12 15 17 19 21 22 21 20 19 18 18 18 19 18 19 18 18 19 17 16 16 15 13 12 13 12 12 10 10 11 12 11 11 11 10 9 9 11 11 10 8 7 10 6 9 11 9 7 7 9 11 nan 8 10 11 12 12 12 13 14 14
20 20 20 20 16 14 12 16 14 12 15 19 19 21 20 21 20 17 14 13 11 11 10 9 12 16 19 20 21 21 22 20 17 18 19 19 19 20 20 20 20 20 19 18 17 16 15 15 14 13 12 10 10 11 11 12 10 9 9 8 8 8 9 9 9 7 7 6 6 6 6 5 11 12 10 12 11 12 12 12 12 13 13 15 16
17 18 18 15 14 13 7 11 11 11 14 17 18 19 19 17 18 16 14 13 12 13 13 11 14 16 18 19 21 21 21 20 20 21 22 23 23 23 23 23 22 22 21 19 18 17 17 16 15 13 13 11 12 11 11 10 10 9 9 7 8 8 8 8 8 9 7 6 6 7 7 6 12 14 10 15 14 nan 12 13 14 15 nan nan nan
16 16 15 13 12 10 7 12 10 12 16 16 17 20 18 15 16 15 13 14 14 15 15 14 16 17 18 20 22 21 22 23 24 25 27 27 27 26 25 24 23 22 21 20 20 20 19 18 15 13 12 12 12 11 10 10 10 10 9 8 9 8 7 6 8 8 7 8 7 7 8 9 11 6 13 12 15 16 14 16 16 18 18 nan nan
15 12 12 11 11 17 17 15 12 12 11 12 15 19 19 17 15 16 15 15 16 17 16 16 18 19 20 21 22 23 27 29 29 29 29 29 30 27 26 25 24 23 22 22 21 21 20 18 16 14 12 12 11 10 9 9 9 10 10 9 9 10 9 9 10 9 8 10 10 10 10 10 9 9 11 11 15 17 16 nan nan nan nan nan nan
11 7 8 12 26 23 20 17 13 9 8 11 15 17 17 17 16 17 16 15 16 18 18 17 18 20 21 23 25 26 29 30 30 32 32 30 29 26 25 24 24 24 23 22 22 22 21 18 16 14 12 12 10 10 10 10 10 11 11 10 10 9 10 10 10 11 10 13 11 13 13 13 12 12 12 13 14 14 17 18 nan nan nan nan nan
7 7 9 22 28 23 18 16 13 11 11 13 16 17 16 16 16 16 15 14 12 13 14 17 18 19 23 24 25 28 29 30 32 32 32 29 27 25 24 24 24 24 22 21 20 21 21 19 16 15 13 12 11 10 10 11 12 12 13 12 11 10 10 11 11 12 12 13 12 12 12 13 14 12 14 15 15 15 19 nan nan nan nan nan nan
8 9 12 26 23 20 18 18 15 12 13 15 17 19 17 16 16 17 16 15 12 10 11 13 15 18 22 23 25 27 29 30 30 30 29 28 26 25 24 24 24 24 22 21 21 21 20 19 17 15 14 13 12 12 12 12 13 13 14 14 14 12 12 12 12 13 13 12 11 11 11 13 18 10 11 13 15 17 19 21 nan nan nan nan nan
15 15 18 19 20 21 21 20 16 14 14 16 18 19 18 18 17 18 17 16 16 15 14 15 16 18 20 23 25 27 28 29 29 28 26 27 26 26 24 23 23 22 21 21 22 21 21 20 18 16 15 14 14 14 13 11 11 12 13 14 15 14 14 13 13 12 12 12 12 12 12 14 16 12 9 14 16 17 19 20 nan nan nan nan nan
20 21 25 26 27 26 24 21 17 15 15 16 17 19 19 18 17 18 19 18 18 18 18 19 20 22 23 25 27 27 28 28 27 26 25 27 27 25 23 22 21 20 21 21 21 21 22 22 19 18 18 17 16 15 13 10 9 9 11 11 13 13 12 11 10 11 11 10 11 12 11 12 13 13 13 15 17 17 17 19 nan nan nan nan nan
35 36 39 40 44 40 29 22 19 16 16 16 18 18 18 17 18 20 21 20 20 20 22 24 25 26 26 28 27 26 27 26 25 25 25 27 27 25 22 21 20 20 21 23 21 22 23 22 20 20 20 19 18 16 14 11 10 9 10 11 11 11 10 10 9 10 10 9 9 9 11 12 13 12 14 14 15 14 16 18 20 nan nan nan nan
30 33 37 38 39 38 33 25 19 15 15 16 20 18 18 18 17 18 19 22 24 25 28 30 31 30 29 28 27 26 27 26 24 24 26 26 26 23 21 20 20 21 22 23 22 22 22 22 21 21 20 20 18 16 14 12 11 10 11 12 11 11 11 10 10 9 9 9 9 10 10 12 11 12 13 14 13 13 14 15 16 nan nan nan nan
29 31 37 40 36 38 31 19 15 15 16 16 20 18 19 18 18 17 18 24 29 33 33 29 32 29 25 25 26 27 27 24 23 23 25 25 23 20 19 19 20 21 22 22 nan nan 22 22 21 21 21 20 18 17 16 13 12 12 12 11 11 13 13 13 12 11 11 11 10 11 10 12 13 13 13 14 13 13 13 14 15 15 nan nan nan
33 34 36 37 36 37 32 20 20 22 17 17 20 19 17 18 19 25 30 38 41 37 32 28 25 21 19 21 24 24 24 23 23 23 23 22 20 17 17 18 18 19 20 22 23 24 23 21 22 22 22 20 19 18 16 14 12 13 12 11 11 12 13 13 12 12 12 11 11 12 12 15 15 15 14 14 14 14 13 14 13 13 nan nan nan
36 37 39 40 39 40 35 26 23 25 21 20 21 23 23 25 27 30 30 33 35 32 26 24 20 19 23 25 25 24 22 21 21 21 20 18 15 14 14 15 17 17 18 nan nan nan 22 21 21 22 22 21 20 19 17 15 13 14 13 12 11 10 11 12 12 11 11 11 12 13 14 15 16 16 16 16 15 15 14 14 14 14 14 nan nan
37 37 39 40 40 42 41 30 22 22 22 24 23 24 27 27 28 27 27 26 28 28 nan 24 22 23 25 26 24 21 20 20 19 18 17 15 13 13 14 15 16 16 18 20 nan nan nan 22 21 21 22 22 21 nan 18 17 14 15 15 13 nan 10 11 11 12 11 12 12 14 14 15 16 17 17 17 nan nan nan 15 16 nan nan nan nan nan
39 42 44 44 40 39 44 37 27 24 24 24 23 23 23 23 23 22 22 22 23 26 28 27 26 26 26 24 22 21 20 19 18 17 17 15 15 15 15 17 19 19 nan nan nan nan nan nan nan nan nan nan nan nan nan nan nan nan nan nan nan nan nan nan 13 13 13 13 14 14 17 18 18 18 18 nan nan nan nan nan nan nan nan nan nan
42 42 40 39 38 37 43 42 32 28 27 24 23 22 23 24 23 20 20 20 22 29 28 26 27 27 26 23 21 20 19 18 18 18 17 16 15 15 17 18 19 nan nan nan nan nan nan nan nan nan nan nan nan nan nan nan nan nan nan nan nan nan nan nan nan nan 15 15 15 16 18 19 18 18 19 nan nan nan nan nan nan nan nan nan nan
41 41 38 36 37 42 45 40 30 28 27 26 24 26 26 26 22 19 16 16 21 24 25 25 26 25 23 21 21 20 19 19 19 17 16 16 15 16 16 17 18 nan nan nan nan nan nan nan nan nan nan nan nan nan nan nan nan nan nan nan nan nan nan nan nan nan nan 18 17 17 19 20 19 19 18 nan nan nan nan nan nan nan nan nan nan
39 nan nan nan 25 33 38 33 27 24 24 24 25 27 27 24 20 17 16 18 21 25 26 25 25 25 23 21 20 21 21 20 19 18 18 17 17 18 nan 19 nan nan nan nan nan nan nan nan nan nan nan nan nan nan nan nan nan nan nan nan nan nan nan nan nan nan nan nan 19 19 21 22 21 20 19 19 nan nan nan nan nan nan nan nan nan
36 33 29 22 22 23 20 19 19 20 21 21 21 23 25 24 19 19 21 21 20 22 23 22 21 23 23 21 21 21 22 23 23 nan nan nan nan nan nan nan nan nan nan nan nan nan nan nan nan nan nan nan nan nan nan nan nan nan nan nan nan nan nan nan nan nan nan nan nan 19 22 22 21 21 20 19 19 19 nan nan nan nan nan nan nan
31 nan nan 24 17 18 21 19 19 20 21 22 22 22 25 26 23 21 22 22 20 21 23 26 26 27 28 30 29 28 27 24 22 nan nan nan nan nan nan nan nan nan nan nan nan nan nan nan nan nan nan nan nan nan nan nan nan nan nan nan nan nan nan nan nan nan nan nan nan nan nan 21 21 21 21 20 19 19 19 19 nan nan nan nan nan
nan nan nan nan nan 20 19 18 21 23 24 24 25 26 27 27 25 23 22 23 22 23 28 29 26 26 27 30 31 29 nan 22 21 nan nan nan nan nan nan nan nan nan nan nan nan nan nan nan nan nan nan nan nan nan nan nan nan nan nan nan nan nan nan nan nan nan nan nan nan nan nan nan 20 20 21 21 20 20 20 19 19 20 nan nan nan
nan nan 32 nan 24 23 23 21 nan 26 nan nan nan 28 28 27 24 24 26 27 26 26 29 30 29 28 28 28 28 26 nan nan nan nan nan nan nan nan nan nan nan nan nan nan nan nan nan nan nan nan nan nan nan nan nan nan nan nan nan nan nan nan nan nan nan nan nan nan nan nan nan nan nan 22 22 22 22 21 21 20 20 20 20 nan nan
nan nan 27 28 26 nan 25 25 nan 27 nan nan 31 31 31 30 28 28 29 30 29 29 30 31 32 31 28 28 29 nan nan nan nan nan nan nan nan nan nan nan nan nan nan nan nan nan nan nan nan nan nan nan nan nan nan nan nan nan nan nan nan nan nan nan nan nan nan nan nan nan nan nan nan nan nan nan nan nan nan nan 22 nan nan nan nan
19 nan nan nan nan nan nan nan nan nan nan nan 32 32 31 30 30 31 33 31 32 33 34 34 nan 32 29 28 30 nan nan nan nan nan nan nan nan nan nan nan nan nan nan nan nan nan nan nan nan nan nan nan nan nan nan nan nan nan nan nan nan nan nan nan nan nan nan nan nan nan nan nan nan nan nan nan nan nan nan nan nan nan nan nan nan
nan 22 nan nan nan nan 22 22 nan nan nan nan 29 30 31 32 30 31 31 30 33 34 34 33 33 31 29 nan nan 33 nan nan nan nan nan nan nan nan nan nan nan nan nan nan nan nan nan nan nan nan nan nan nan nan nan nan nan nan nan nan nan nan nan nan nan nan nan nan nan nan nan nan nan nan nan nan nan nan nan nan nan nan nan nan nan
nan nan nan 25 nan nan nan 22 nan 22 nan nan nan 28 31 32 32 31 28 30 34 34 nan 34 34 34 33 nan nan nan nan nan nan nan nan nan nan nan nan nan nan nan nan nan nan nan nan nan nan nan nan nan nan nan nan nan nan nan nan nan nan nan nan nan nan nan nan nan nan 23 24 25 26 26 28 nan nan nan nan nan nan nan nan nan nan
nan nan nan nan nan 24 23 nan nan nan nan nan nan nan 32 nan 34 31 29 nan nan nan nan nan nan nan nan nan nan nan nan nan nan nan nan nan nan nan nan nan nan nan nan nan nan nan nan nan nan nan nan nan nan nan nan nan nan nan nan nan nan nan nan nan nan nan nan nan 25 nan 26 28 nan nan nan 29 31 nan nan nan nan nan nan nan nan
nan nan nan 24 nan nan nan nan nan nan nan nan nan nan nan nan nan nan nan nan nan nan nan nan nan nan nan nan nan nan nan nan nan nan nan nan nan nan nan nan nan nan nan nan nan nan nan nan nan nan nan nan nan nan nan nan nan nan nan nan nan nan nan nan nan nan nan nan nan nan nan 30 32 32 31 31 32 32 34 nan nan nan nan nan nan
26 nan nan nan nan nan nan nan nan nan nan nan nan nan nan nan nan nan nan nan nan nan nan nan nan nan nan nan nan nan nan nan nan nan nan nan nan nan nan nan nan nan nan nan nan nan nan nan nan nan nan nan nan nan nan nan nan nan nan nan nan nan 32 33 nan nan nan nan nan nan nan nan nan nan nan 34 33 34 nan 34 33 32 32 33 nan
nan nan nan nan nan nan nan nan nan nan nan nan nan nan nan nan nan nan nan nan nan nan nan nan nan nan nan nan nan nan nan nan nan nan nan nan nan nan nan nan nan nan nan nan nan nan nan nan nan nan nan nan nan nan nan nan nan nan nan nan nan nan nan 34 35 35 nan nan nan nan 33 33 34 34 nan nan nan nan nan nan nan nan 35 38 nan
nan nan nan nan nan nan nan nan nan nan nan nan nan nan nan nan nan nan nan nan nan nan nan nan nan nan nan nan nan nan nan nan nan nan nan nan nan nan nan nan nan nan nan nan nan nan nan nan nan nan nan nan nan nan nan nan nan nan nan nan nan nan nan nan nan nan nan nan nan nan 36 36 36 35 nan nan nan nan nan nan nan 37 39 nan nan
nan nan nan nan nan nan nan nan nan nan nan nan nan nan nan nan nan nan nan nan nan nan nan nan nan nan nan nan nan nan nan nan nan nan nan nan nan nan nan nan nan nan nan nan nan nan nan nan nan nan nan nan nan nan nan nan nan nan nan nan nan nan nan nan nan nan nan nan nan nan nan nan 38 40 49 nan nan nan nan 40 40 40 41 41 42
nan nan nan nan nan nan nan nan nan nan nan nan nan nan nan nan nan nan nan nan nan nan nan nan nan nan nan nan nan nan nan nan nan nan nan nan nan nan nan nan nan nan nan nan nan nan nan nan nan nan nan nan nan nan nan nan nan nan nan nan nan nan nan nan nan nan nan nan nan nan nan nan 43 44 47 49 nan nan nan 45 45 45 44 43 44
nan nan nan nan nan nan nan nan nan nan nan nan nan nan nan nan nan nan nan nan nan nan nan nan nan nan nan nan nan nan nan nan nan nan nan nan nan nan nan nan nan nan nan nan nan nan nan nan nan nan nan nan nan nan nan nan nan nan nan nan nan nan nan nan nan nan nan nan nan nan nan nan nan nan nan nan nan nan 48 48 48 48 49 48 51
nan nan nan nan nan nan nan nan nan nan nan nan nan nan nan nan nan nan nan nan nan nan nan nan nan nan nan nan nan nan nan nan nan nan nan nan nan nan nan nan nan nan nan nan nan nan nan nan nan nan nan nan nan nan nan nan nan nan nan nan nan nan nan nan nan nan nan nan nan nan nan nan nan nan nan nan nan nan nan nan 51 51 51 56 60
nan nan nan nan nan nan nan nan nan nan nan nan nan nan nan nan nan nan nan nan nan nan nan nan nan nan nan nan nan nan nan nan nan nan nan nan nan nan nan nan nan nan nan nan nan nan nan nan nan nan nan nan nan nan nan nan nan nan nan nan nan nan nan nan nan nan nan nan nan nan nan nan nan nan nan nan nan nan nan nan 53 51 53 61 59
nan nan nan nan nan nan nan nan nan nan nan nan nan nan nan nan nan nan nan nan nan nan nan nan nan nan nan nan nan nan nan nan nan nan nan nan nan nan nan nan nan nan nan nan nan nan nan nan nan nan nan nan nan nan nan nan nan nan nan nan nan nan nan nan nan nan nan nan nan nan nan nan nan nan nan nan nan nan nan nan nan 53 54 59 62
nan nan nan nan nan nan nan nan nan nan nan nan nan nan nan nan nan nan nan nan nan nan nan nan nan nan nan nan nan nan nan nan nan nan nan nan nan nan nan nan nan nan nan nan nan nan nan nan nan nan nan nan nan nan nan nan nan nan nan nan nan nan nan nan nan nan nan nan nan nan nan nan nan nan nan nan nan nan nan nan nan nan 57 61 62
nan nan nan nan nan nan nan nan nan nan nan nan nan nan nan nan nan nan nan nan nan nan nan nan nan nan nan nan nan nan nan nan nan nan nan nan nan nan nan nan nan nan nan nan nan nan nan nan nan nan nan nan nan nan nan nan nan nan nan nan nan nan nan nan nan nan nan nan nan nan nan nan nan nan nan nan nan nan nan nan nan nan 62 66 64
nan nan nan nan nan nan nan nan nan nan nan nan nan nan nan nan nan nan nan nan nan nan nan nan nan nan nan nan nan nan nan nan nan nan nan nan nan nan nan nan nan nan nan nan nan nan nan nan nan nan nan nan nan nan nan nan nan nan nan nan nan nan nan nan nan nan nan nan nan nan nan nan nan nan nan nan nan nan nan nan nan nan nan 67 67
nan nan nan nan nan nan nan nan nan nan nan nan nan nan nan nan nan nan nan nan nan nan nan nan nan nan nan nan nan nan nan nan nan nan nan nan nan nan nan nan nan nan nan nan nan nan nan nan nan nan nan nan nan nan nan nan nan nan nan nan nan nan nan nan nan nan nan nan nan nan nan nan nan nan nan nan nan nan nan nan nan nan nan nan 67
nan nan nan nan nan nan nan nan nan nan nan nan nan nan nan nan nan nan nan nan nan nan nan nan nan nan nan nan nan nan nan nan nan nan nan nan nan nan nan nan nan nan nan nan nan nan nan nan nan nan nan nan nan nan nan nan nan nan nan nan nan nan nan nan nan nan nan nan nan nan nan nan nan nan nan nan nan nan nan nan nan nan nan nan 68
nan nan nan nan nan nan nan nan nan nan nan nan nan nan nan nan nan nan nan nan nan nan nan nan nan nan nan nan nan nan nan nan nan nan nan nan nan nan nan nan nan nan nan nan nan nan nan nan nan nan nan nan nan nan nan nan nan nan nan nan nan nan nan nan nan nan nan nan nan nan nan nan nan nan nan nan nan nan nan nan nan nan nan nan 73
nan nan nan nan nan nan nan nan nan nan nan nan nan nan nan nan nan nan nan nan nan nan nan nan nan nan nan nan nan nan nan nan nan nan nan nan nan nan nan nan nan nan nan nan nan nan nan nan nan nan nan nan nan nan nan nan nan nan nan nan nan nan nan nan nan nan nan nan nan nan nan nan nan nan nan nan nan nan nan nan nan nan nan nan nan
nan nan nan nan nan nan nan nan nan nan nan nan nan nan nan nan nan nan nan nan nan nan nan nan nan nan nan nan nan nan nan nan nan nan nan nan nan nan nan nan nan nan nan nan nan nan nan nan nan nan nan nan nan nan nan nan nan nan nan nan nan nan nan nan nan nan nan nan nan nan nan nan nan nan nan nan nan nan nan nan nan nan nan nan nan
Wind_Direction
283 291 299 299 301 307 307 296 276 274 265 231 282 271 284 286 304 304 272 266 267 257 247 252 258 257 257 262 269 274 272 265 257 252 249 244 246 246 246 243 248 249 247 251 251 254 250 254 266 276 284 289 289 285 285 289 285 285 287 289 292 289 290 295 299 300 296 285 280 283 283 281 278 276 280 285 280 262 263 273 269 277 278 278 275
278 283 290 286 287 304 295 289 296 286 270 273 292 318 339 351 355 342 286 270 265 255 248 253 256 259 256 260 269 275 271 265 259 252 245 241 243 244 244 246 249 250 249 251 249 250 251 252 259 269 276 282 284 283 283 282 284 285 290 285 285 289 291 301 304 303 299 301 304 291 279 279 274 274 276 278 286 292 284 276 273 284 286 282 282
284 282 286 281 282 301 300 290 304 296 282 286 299 311 323 332 346 351 338 292 270 258 253 252 254 256 256 258 271 269 262 256 252 248 245 244 244 245 244 244 246 246 249 251 250 252 254 257 260 263 272 274 281 283 282 283 287 291 297 288 283 281 287 294 300 282 300 301 297 298 295 289 282 261 258 268 281 295 290 284 282 282 289 289 287
291 286 283 279 277 289 302 298 307 305 296 297 304 311 312 315 323 334 333 320 304 285 268 261 256 253 248 254 259 255 253 251 249 248 245 244 245 242 240 240 241 243 247 250 250 251 254 255 258 260 266 268 272 275 278 284 290 288 290 289 288 285 291 296 291 295 304 309 308 292 296 300 296 279 282 275 281 285 296 295 291 290 294 295 295
280 281 277 277 275 282 305 297 307 310 303 307 312 314 311 317 320 320 322 316 307 298 280 259 255 253 246 247 246 245 243 245 250 250 244 239 238 240 241 239 241 243 246 249 250 252 250 249 254 257 262 264 263 266 271 277 287 287 293 291 296 289 295 297 292 298 319 277 293 301 300 315 293 293 287 nan 271 280 279 290 292 300 303 295 289
287 291 286 283 277 274 284 284 300 301 303 308 312 317 313 312 309 305 298 299 301 299 285 260 250 248 247 246 246 244 245 248 254 254 243 239 243 242 244 246 246 247 248 250 251 251 252 252 255 259 261 263 257 257 264 268 279 286 291 291 294 291 292 298 299 289 311 270 251 249 259 275 311 309 297 281 265 260 268 278 288 293 293 290 285
281 279 279 279 272 276 284 273 289 290 290 296 298 306 312 309 302 296 288 282 282 284 283 256 246 242 248 249 250 251 254 251 248 247 244 241 244 248 248 248 250 253 253 253 254 255 254 254 257 259 258 255 253 254 257 262 267 278 281 283 280 280 291 301 312 304 301 283 267 258 257 270 310 313 300 291 288 nan 261 261 264 268 nan nan nan
280 282 278 277 270 272 258 269 286 273 277 284 290 296 303 297 293 282 270 268 265 270 273 257 251 247 246 246 248 249 256 257 254 248 243 243 247 251 251 251 254 255 255 256 257 256 253 252 253 256 258 255 254 256 258 259 261 267 272 274 271 273 286 283 298 301 310 290 281 276 270 288 304 282 306 306 299 294 281 274 265 265 263 nan nan
277 274 267 278 245 238 244 266 264 258 271 283 290 291 291 291 280 274 271 266 265 271 269 263 255 254 250 247 246 243 249 248 246 247 247 246 248 248 250 255 258 258 257 258 257 255 251 248 248 248 250 253 252 250 252 258 264 267 274 276 277 274 265 262 271 283 285 282 289 283 281 292 294 288 304 295 297 294 289 nan nan nan nan nan nan
269 270 254 251 232 239 250 263 261 250 258 278 283 283 283 279 277 282 281 273 277 278 271 267 260 254 252 246 248 245 245 245 245 246 248 250 252 252 252 254 256 258 258 253 255 255 252 248 244 244 245 248 247 248 252 257 264 268 274 277 276 273 268 267 268 266 270 271 276 277 283 288 292 292 302 300 296 299 299 296 nan nan nan nan nan
258 246 245 238 237 248 262 266 263 255 256 274 280 279 278 273 276 280 278 274 282 286 283 274 262 256 244 247 248 249 249 246 246 246 247 251 254 253 255 254 253 255 252 251 254 255 253 246 239 239 241 245 248 253 255 257 264 269 271 275 274 272 266 269 267 261 264 271 276 278 282 291 289 296 301 303 298 293 293 nan nan nan nan nan nan
219 227 246 242 249 253 257 266 265 256 254 258 268 274 275 273 272 273 272 270 271 282 292 279 264 252 242 245 245 247 248 246 250 252 253 256 255 256 254 253 254 251 246 247 252 256 256 248 240 239 241 246 251 253 257 264 268 272 274 273 270 269 267 265 265 269 272 270 277 273 271 273 270 258 287 295 295 290 294 298 nan nan nan nan nan
214 220 226 239 245 253 256 258 261 258 249 251 259 266 270 273 278 276 275 275 275 282 289 272 258 246 241 241 244 246 248 250 253 253 253 255 255 257 259 260 257 255 252 253 252 256 253 248 244 242 243 247 251 254 259 265 269 274 275 275 272 272 270 273 270 273 276 271 270 269 260 266 280 283 280 285 277 281 289 292 nan nan nan nan nan
215 217 216 221 224 232 241 246 244 241 247 249 256 256 259 264 272 274 269 269 269 273 275 263 253 242 235 236 241 244 245 248 249 252 251 251 253 258 262 263 262 262 260 258 251 249 246 242 239 241 243 251 254 255 257 262 274 280 280 275 269 264 263 269 266 268 268 266 262 267 270 263 268 271 277 279 280 284 285 289 nan nan nan nan nan
226 229 234 233 223 216 219 227 227 235 242 243 249 253 254 261 266 267 265 268 268 266 258 253 243 236 229 232 238 239 242 246 249 249 249 251 252 256 257 258 262 261 262 257 252 246 243 241 239 241 245 251 255 257 260 268 280 283 277 270 263 260 265 264 263 267 265 268 268 265 268 263 262 267 276 280 285 287 288 291 294 nan nan nan nan
246 251 255 256 246 227 216 214 216 226 246 244 250 247 249 255 264 270 273 270 266 262 248 240 236 228 225 230 235 239 241 247 248 246 248 251 254 257 259 258 258 260 257 258 254 251 248 245 242 244 248 254 259 261 264 269 281 285 277 272 271 267 271 275 269 271 271 274 277 275 276 274 273 275 281 284 291 292 290 291 292 nan nan nan nan
256 264 267 267 256 246 234 221 227 235 245 245 254 247 253 253 256 260 268 255 249 247 242 239 233 232 227 233 238 239 247 254 253 253 255 255 259 257 258 258 258 260 261 257 nan nan 249 245 244 246 250 257 262 262 263 270 284 287 282 279 276 277 275 275 272 272 275 282 286 293 285 283 285 282 285 290 294 294 295 295 298 294 nan nan nan
256 260 260 258 255 248 240 233 235 236 248 245 249 253 246 246 250 243 236 232 226 229 226 234 252 248 239 243 247 247 252 255 256 257 257 261 260 257 254 261 265 260 258 257 258 258 252 247 245 245 250 256 260 261 264 270 281 282 280 277 273 277 276 273 271 274 278 284 289 290 284 282 281 287 292 297 296 298 298 299 295 283 nan nan nan
257 260 259 250 246 244 238 237 231 227 237 251 249 241 239 235 241 250 254 251 242 236 238 246 245 230 227 236 246 248 250 253 252 254 258 264 266 260 261 261 259 257 257 nan nan nan 254 249 246 247 252 258 261 263 265 266 273 277 277 274 273 274 275 276 277 281 284 293 298 296 289 282 282 287 290 293 290 296 300 301 293 285 282 nan nan
263 263 262 259 251 244 237 237 240 237 236 239 243 245 250 257 262 262 268 268 257 247 nan 244 238 227 231 236 241 247 246 248 253 256 259 264 258 252 252 256 256 252 252 255 nan nan nan 257 251 250 254 259 262 nan 264 265 268 269 271 269 nan 275 278 281 283 286 286 294 300 301 295 289 287 288 290 nan nan nan 295 298 nan nan nan nan nan
259 268 269 267 257 245 236 232 233 237 243 243 241 253 259 261 264 261 257 257 256 247 241 233 231 231 237 238 238 238 242 247 255 254 253 248 242 245 250 252 250 249 nan nan nan nan nan nan nan nan nan nan nan nan nan nan nan nan nan nan nan nan nan nan 274 278 278 285 290 292 293 291 291 291 288 nan nan nan nan nan nan nan nan nan nan
261 264 263 264 264 246 232 229 227 232 236 244 249 250 255 258 263 262 262 261 245 235 241 236 230 235 239 240 239 237 243 248 252 249 245 242 242 248 253 254 253 nan nan nan nan nan nan nan nan nan nan nan nan nan nan nan nan nan nan nan nan nan nan nan nan nan 275 274 279 284 287 288 290 291 289 nan nan nan nan nan nan nan nan nan nan
265 260 261 264 252 231 220 219 224 234 236 242 246 252 256 265 269 269 270 254 246 244 245 242 237 237 240 246 244 244 245 250 250 247 245 242 244 249 254 261 259 nan nan nan nan nan nan nan nan nan nan nan nan nan nan nan nan nan nan nan nan nan nan nan nan nan nan 275 280 282 284 285 280 284 286 nan nan nan nan nan nan nan nan nan nan
263 nan nan nan 213 201 202 210 220 233 240 246 250 252 257 264 270 272 263 255 236 237 240 241 238 236 239 243 246 247 249 247 246 240 243 240 242 246 nan 257 nan nan nan nan nan nan nan nan nan nan nan nan nan nan nan nan nan nan nan nan nan nan nan nan nan nan nan nan 277 280 281 285 285 285 285 281 nan nan nan nan nan nan nan nan nan
261 259 253 230 194 187 196 206 222 233 238 243 247 250 255 259 262 257 248 248 239 239 242 242 244 242 236 236 239 239 242 242 240 nan nan nan nan nan nan nan nan nan nan nan nan nan nan nan nan nan nan nan nan nan nan nan nan nan nan nan nan nan nan nan nan nan nan nan nan 276 281 285 286 283 280 282 283 286 nan nan nan nan nan nan nan
259 nan nan 237 219 199 201 214 229 235 240 243 242 245 248 250 252 250 246 243 243 237 237 232 231 238 234 231 228 226 229 238 246 nan nan nan nan nan nan nan nan nan nan nan nan nan nan nan nan nan nan nan nan nan nan nan nan nan nan nan nan nan nan nan nan nan nan nan nan nan nan 280 283 280 280 279 280 285 281 283 nan nan nan nan nan
nan nan nan nan nan 212 209 221 239 239 241 241 245 247 247 245 241 239 240 239 243 236 232 234 239 240 239 239 241 242 nan 247 242 nan nan nan nan nan nan nan nan nan nan nan nan nan nan nan nan nan nan nan nan nan nan nan nan nan nan nan nan nan nan nan nan nan nan nan nan nan nan nan 276 277 277 278 278 279 277 280 278 278 nan nan nan
nan nan 228 nan 224 219 214 211 nan 232 nan nan nan 231 239 242 237 235 237 236 234 242 240 240 240 237 234 237 237 239 nan nan nan nan nan nan nan nan nan nan nan nan nan nan nan nan nan nan nan nan nan nan nan nan nan nan nan nan nan nan nan nan nan nan nan nan nan nan nan nan nan nan nan 272 272 272 273 275 272 274 275 277 279 nan nan
nan nan 221 220 212 nan 216 217 nan 232 nan nan 224 223 218 222 226 229 234 235 237 242 242 241 239 239 241 242 241 nan nan nan nan nan nan nan nan nan nan nan nan nan nan nan nan nan nan nan nan nan nan nan nan nan nan nan nan nan nan nan nan nan nan nan nan nan nan nan nan nan nan nan nan nan nan nan nan nan nan nan 275 nan nan nan nan
231 nan nan nan nan nan nan nan nan nan nan nan 231 227 220 222 225 225 226 229 236 241 244 240 nan 235 238 241 243 nan nan nan nan nan nan nan nan nan nan nan nan nan nan nan nan nan nan nan nan nan nan nan nan nan nan nan nan nan nan nan nan nan nan nan nan nan nan nan nan nan nan nan nan nan nan nan nan nan nan nan nan nan nan nan nan
nan 225 nan nan nan nan 203 209 nan nan nan nan 234 229 224 222 221 219 217 218 228 234 236 234 232 234 239 nan nan 239 nan nan nan nan nan nan nan nan nan nan nan nan nan nan nan nan nan nan nan nan nan nan nan nan nan nan nan nan nan nan nan nan nan nan nan nan nan nan nan nan nan nan nan nan nan nan nan nan nan nan nan nan nan nan nan
nan nan nan 220 nan nan nan 218 nan 217 nan nan nan 226 225 224 219 219 217 224 229 232 nan 228 232 238 240 nan nan nan nan nan nan nan nan nan nan nan nan nan nan nan nan nan nan nan nan nan nan nan nan nan nan nan nan nan nan nan nan nan nan nan nan nan nan nan nan nan nan 262 262 260 259 259 261 nan nan nan nan nan nan nan nan nan nan
nan nan nan nan nan 223 224 nan nan nan nan nan nan nan 223 nan 223 223 225 nan nan nan nan nan nan nan nan nan nan nan nan nan nan nan nan nan nan nan nan nan nan nan nan nan nan nan nan nan nan nan nan nan nan nan nan nan nan nan nan nan nan nan nan nan nan nan nan nan 246 nan 254 255 nan nan nan 260 265 nan nan nan nan nan nan nan nan
nan nan nan 231 nan nan nan nan nan nan nan nan nan nan nan nan nan nan nan nan nan nan nan nan nan nan nan nan nan nan nan nan nan nan nan nan nan nan nan nan nan nan nan nan nan nan nan nan nan nan nan nan nan nan nan nan nan nan nan nan nan nan nan nan nan nan nan nan nan nan nan 246 250 254 256 258 261 264 269 nan nan nan nan nan nan
247 nan nan nan nan nan nan nan nan nan nan nan nan nan nan nan nan nan nan nan nan nan nan nan nan nan nan nan nan nan nan nan nan nan nan nan nan nan nan nan nan nan nan nan nan nan nan nan nan nan nan nan nan nan nan nan nan nan nan nan nan nan 258 255 nan nan nan nan nan nan nan nan nan nan nan 255 258 262 nan 265 266 268 270 271 nan
nan nan nan nan nan nan nan nan nan nan nan nan nan nan nan nan nan nan nan nan nan nan nan nan nan nan nan nan nan nan nan nan nan nan nan nan nan nan nan nan nan nan nan nan nan nan nan nan nan nan nan nan nan nan nan nan nan nan nan nan nan nan nan 256 256 255 nan nan nan nan 253 253 254 256 nan nan nan nan nan nan nan nan 269 270 nan
nan nan nan nan nan nan nan nan nan nan nan nan nan nan nan nan nan nan nan nan nan nan nan nan nan nan nan nan nan nan nan nan nan nan nan nan nan nan nan nan nan nan nan nan nan nan nan nan nan nan nan nan nan nan nan nan nan nan nan nan nan nan nan nan nan nan nan nan nan nan 256 255 256 258 nan nan nan nan nan nan nan 271 272 nan nan
nan nan nan nan nan nan nan nan nan nan nan nan nan nan nan nan nan nan nan nan nan nan nan nan nan nan nan nan nan nan nan nan nan nan nan nan nan nan nan nan nan nan nan nan nan nan nan nan nan nan nan nan nan nan nan nan nan nan nan nan nan nan nan nan nan nan nan nan nan nan nan nan 261 262 263 nan nan nan nan 270 271 271 273 275 275
nan nan nan nan nan nan nan nan nan nan nan nan nan nan nan nan nan nan nan nan nan nan nan nan nan nan nan nan nan nan nan nan nan nan nan nan nan nan nan nan nan nan nan nan nan nan nan nan nan nan nan nan nan nan nan nan nan nan nan nan nan nan nan nan nan nan nan nan nan nan nan nan 264 262 261 267 nan nan nan 271 272 271 273 274 274
nan nan nan nan nan nan nan nan nan nan nan nan nan nan nan nan nan nan nan nan nan nan nan nan nan nan nan nan nan nan nan nan nan nan nan nan nan nan nan nan nan nan nan nan nan nan nan nan nan nan nan nan nan nan nan nan nan nan nan nan nan nan nan nan nan nan nan nan nan nan nan nan nan nan nan nan nan nan 273 272 273 274 276 277 276
nan nan nan nan nan nan nan nan nan nan nan nan nan nan nan nan nan nan nan nan nan nan nan nan nan nan nan nan nan nan nan nan nan nan nan nan nan nan nan nan nan nan nan nan nan nan nan nan nan nan nan nan nan nan nan nan nan nan nan nan nan nan nan nan nan nan nan nan nan nan nan nan nan nan nan nan nan nan nan nan 274 275 275 270 270
nan nan nan nan nan nan nan nan nan nan nan nan nan nan nan nan nan nan nan nan nan nan nan nan nan nan nan nan nan nan nan nan nan nan nan nan nan nan nan nan nan nan nan nan nan nan nan nan nan nan nan nan nan nan nan nan nan nan nan nan nan nan nan nan nan nan nan nan nan nan nan nan nan nan nan nan nan nan nan nan 274 274 271 272 273
nan nan nan nan nan nan nan nan nan nan nan nan nan nan nan nan nan nan nan nan nan nan nan nan nan nan nan nan nan nan nan nan nan nan nan nan nan nan nan nan nan nan nan nan nan nan nan nan nan nan nan nan nan nan nan nan nan nan nan nan nan nan nan nan nan nan nan nan nan nan nan nan nan nan nan nan nan nan nan nan nan 271 270 272 272
nan nan nan nan nan nan nan nan nan nan nan nan nan nan nan nan nan nan nan nan nan nan nan nan nan nan nan nan nan nan nan nan nan nan nan nan nan nan nan nan nan nan nan nan nan nan nan nan nan nan nan nan nan nan nan nan nan nan nan nan nan nan nan nan nan nan nan nan nan nan nan nan nan nan nan nan nan nan nan nan nan nan 271 270 270
nan nan nan nan nan nan nan nan nan nan nan nan nan nan nan nan nan nan nan nan nan nan nan nan nan nan nan nan nan nan nan nan nan nan nan nan nan nan nan nan nan nan nan nan nan nan nan nan nan nan nan nan nan nan nan nan nan nan nan nan nan nan nan nan nan nan nan nan nan nan nan nan nan nan nan nan nan nan nan nan nan nan 272 270 271
nan nan nan nan nan nan nan nan nan nan nan nan nan nan nan nan nan nan nan nan nan nan nan nan nan nan nan nan nan nan nan nan nan nan nan nan nan nan nan nan nan nan nan nan nan nan nan nan nan nan nan nan nan nan nan nan nan nan nan nan nan nan nan nan nan nan nan nan nan nan nan nan nan nan nan nan nan nan nan nan nan nan nan 270 271
nan nan nan nan nan nan nan nan nan nan nan nan nan nan nan nan nan nan nan nan nan nan nan nan nan nan nan nan nan nan nan nan nan nan nan nan nan nan nan nan nan nan nan nan nan nan nan nan nan nan nan nan nan nan nan nan nan nan nan nan nan nan nan nan nan nan nan nan nan nan nan nan nan nan nan nan nan nan nan nan nan nan nan nan 272
nan nan nan nan nan nan nan nan nan nan nan nan nan nan nan nan nan nan nan nan nan nan nan nan nan nan nan nan nan nan nan nan nan nan nan nan nan nan nan nan nan nan nan nan nan nan nan nan nan nan nan nan nan nan nan nan nan nan nan nan nan nan nan nan nan nan nan nan nan nan nan nan nan nan nan nan nan nan nan nan nan nan nan nan 272
nan nan nan nan nan nan nan nan nan nan nan nan nan nan nan nan nan nan nan nan nan nan nan nan nan nan nan nan nan nan nan nan nan nan nan nan nan nan nan nan nan nan nan nan nan nan nan nan nan nan nan nan nan nan nan nan nan nan nan nan nan nan nan nan nan nan nan nan nan nan nan nan nan nan nan nan nan nan nan nan nan nan nan nan 272
nan nan nan nan nan nan nan nan nan nan nan nan nan nan nan nan nan nan nan nan nan nan nan nan nan nan nan nan nan nan nan nan nan nan nan nan nan nan nan nan nan nan nan nan nan nan nan nan nan nan nan nan nan nan nan nan nan nan nan nan nan nan nan nan nan nan nan nan nan nan nan nan nan nan nan nan nan nan nan nan nan nan nan nan nan
nan nan nan nan nan nan nan nan nan nan nan nan nan nan nan nan nan nan nan nan nan nan nan nan nan nan nan nan nan nan nan nan nan nan nan nan nan nan nan nan nan nan nan nan nan nan nan nan nan nan nan nan nan nan nan nan nan nan nan nan nan nan nan nan nan nan nan nan nan nan nan nan nan nan nan nan nan nan nan nan nan nan nan nan nan